Lid_Strength_Index
-1 -0 1 3 6 7 8 7 5 6 5 4 4 4 5 4 6 8 1 0 -0 -0 -1 -1 -1 -1 -1 -1 -1 -1 -1 -1 -1 -1 -1 -1 -1 -1 -1 -2 -2 -2 -2 -2 -2 -2 -2 -2 -1
1 1 2 4 8 9 8 6 6 5 4 3 4 4 5 5 3 3 2 -0 -0 -0 -1 -1 -1 -1 -1 -1 -1 -1 -1 -1 -1 -1 -1 -1 -1 -1 -1 -2 -2 -2 -2 -2 -2 -2 -2 -2 -1
-0 0 5 7 7 9 8 6 5 4 4 4 5 3 4 4 2 2 0 -0 -0 -0 -1 -1 -1 -1 -1 -1 -1 -1 -1 -1 -1 -1 -1 -1 -1 -1 -2 -2 -2 -2 -2 -2 -2 -2 -2 -1 -1
1 3 5 8 9 7 6 5 5 5 4 3 4 5 3 2 2 1 0 -0 0 -0 -1 -1 -1 -1 -1 -1 -1 -1 -1 -1 -1 -1 -1 -2 -2 -2 -2 -2 -2 -2 -2 -2 -2 -2 -1 -1 -1
1 3 8 8 8 6 5 4 4 5 5 4 4 5 4 2 1 0 0 -0 0 -0 -1 -1 -1 -1 -1 -1 -1 -1 -1 -1 -1 -1 -1 -2 -2 -2 -2 -2 -2 -2 -2 -2 -2 -2 -1 -1 -1
5 5 9 9 8 6 5 4 4 4 4 4 4 4 4 1 1 1 0 -0 -0 -0 -1 -1 -1 -1 -1 -1 -1 -1 -1 -1 -1 -1 -1 -2 -2 -2 -2 -2 -2 -2 -2 -2 -2 -2 -1 -1 -1
6 6 9 9 8 6 5 3 4 5 5 4 3 5 3 2 1 0 0 -0 -0 -0 -0 -1 -1 -1 -1 -1 -1 -1 -1 -1 -1 -1 -1 -1 -2 -2 -2 -2 -2 -2 -2 -2 -2 -2 -1 -1 -1
4 5 8 7 9 9 6 4 3 4 5 3 2 5 5 2 1 0 0 0 -0 -0 -0 -1 -1 -1 -1 -1 -1 -1 -1 -1 -1 -1 -1 -1 -1 -1 -2 -1 -2 -2 -2 -2 -2 -2 -2 -1 -1
3 7 9 8 7 7 5 5 4 3 5 4 3 3 2 1 1 1 1 1 0 0 -0 -0 -0 -1 -1 -1 -1 -1 -1 -1 -1 -1 -1 -1 -1 -2 -2 -2 -2 -2 -2 -2 -2 -1 -1 -1 -1
5 8 8 5 5 6 5 5 5 4 4 5 3 2 2 1 1 2 2 2 1 1 0 -0 -1 -1 -1 -0 -1 -1 -1 -1 -1 -1 -2 -1 -2 -2 -1 -2 -2 -2 -2 -1 -1 -1 -1 -1 -1
5 8 5 5 4 4 5 6 4 5 5 4 4 3 2 2 2 2 2 1 1 0 0 -0 -1 -1 -1 -0 -1 -0 -1 -1 -1 -2 -2 -2 -1 -2 -1 -1 -1 -2 -1 -1 -1 -1 -1 -1 -1
7 5 5 5 4 4 5 5 6 5 4 3 2 2 2 2 2 2 2 1 1 1 0 -0 -1 -0 -1 -1 -0 -0 -0 -0 -0 -1 -2 -1 -0 -1 -1 -0 -1 -1 -1 -1 -1 -1 -1 -1 -1
7 6 5 5 4 4 4 5 5 5 4 3 3 3 3 2 2 1 1 1 1 1 0 -0 -1 -0 -0 -0 -0 -0 -0 -0 -1 -1 -1 -1 -0 -0 -0 -1 -1 -1 -1 -1 -0 -1 -0 -0 -1
5 6 6 6 5 5 5 5 5 4 3 4 3 3 2 3 2 1 1 1 1 0 0 -0 -1 -1 -0 -0 -0 -0 -0 -1 -1 -1 -1 -1 -0 -0 -0 -0 -0 -0 -1 -1 -0 -0 -0 -0 -1
5 7 6 6 5 6 5 7 6 4 3 4 3 3 3 2 2 2 1 1 1 0 -0 -0 -1 -1 -0 -0 -0 -0 -1 -1 -0 -0 -1 -1 -1 -0 -0 -0 -0 -0 -1 -1 -1 -1 -1 -0 -0
8 7 9 7 5 5 6 9 6 4 4 4 4 3 3 2 2 2 1 1 0 0 0 -0 -0 -0 -0 -1 -1 -0 -0 -0 -0 -0 -1 -1 -1 -1 -0 -0 -0 -1 -1 -0 -0 -0 0 0 0
9 11 9 8 5 6 6 8 6 4 4 4 4 4 3 3 2 2 1 1 0 0 0 -0 -0 -0 -1 -1 -1 -1 -1 -0 -0 -1 -0 -1 -1 -0 -0 -0 -0 -1 -0 -0 -0 0 0 1 1
11 10 9 9 7 6 7 7 5 4 4 5 4 4 3 3 2 1 1 1 0 0 -0 -0 -0 -0 -1 -0 -1 -0 -0 -0 -0 -0 -0 -1 -0 -0 -0 -0 -0 -0 0 0 0 0 0 1 1
9 10 10 8 6 6 7 7 6 5 5 5 4 4 4 3 2 1 1 1 0 0 0 0 0 0 0 1 1 1 1 1 0 -0 -1 -1 -1 -0 -0 0 -0 -0 0 0 -0 0 1 1 0
9 10 10 9 7 6 7 7 6 5 5 4 4 4 4 3 3 2 1 1 1 1 0 0 0 0 0 0 0 0 0 0 0 -0 -0 -1 -0 -1 0 -0 0 -0 0 0 0 1 1 1 0
10 10 10 10 8 7 7 9 7 6 5 4 4 3 3 3 3 3 2 2 1 1 1 1 0 0 0 -0 0 0 0 0 1 1 1 0 -0 -0 -0 -0 -0 0 0 1 0 0 1 2 1
11 8 9 10 10 13 8 12 8 7 6 5 5 4 4 3 3 3 2 2 2 1 1 0 0 0 0 0 0 1 2 2 1 1 1 1 0 0 0 -0 0 0 0 0 0 0 1 1 2
9 7 8 8 10 10 10 11 10 7 8 6 5 4 4 3 3 3 2 2 2 1 1 0 0 1 0 0 0 1 1 1 1 1 1 1 0 0 -0 0 0 0 0 0 0 0 0 0 1
6 7 8 8 9 13 11 11 11 9 7 6 5 4 4 3 3 2 2 2 2 1 1 0 0 1 0 0 1 1 1 1 2 2 2 2 1 1 0 0 0 -0 -0 0 0 -0 -0 0 1
7 10 14 14 14 14 9 11 10 7 6 5 5 4 4 3 3 2 2 2 1 1 1 1 1 1 1 1 1 1 1 1 1 2 2 2 2 1 1 0 0 0 -1 -0 -0 -0 -0 0 1
10 10 13 17 16 14 10 13 11 6 5 4 4 4 3 3 3 2 2 2 2 1 1 1 1 1 1 1 1 1 1 1 1 1 1 1 1 1 0 -0 -0 -0 -0 -0 -0 0 0 -0 0
9 11 8 12 11 14 13 10 7 6 6 5 5 4 4 3 3 3 2 2 2 1 1 1 1 1 1 1 1 1 1 1 1 1 1 1 1 1 0 -0 -0 -0 -0 -0 -0 0 0 -0 -0
8 7 15 11 16 17 13 12 12 8 7 6 5 5 4 3 3 3 3 2 2 1 1 1 1 2 1 1 1 1 1 1 1 1 0 0 0 0 0 -0 -0 -0 -0 -0 -0 -0 -0 0 0
10 10 11 11 13 15 17 14 8 7 6 6 5 5 4 4 4 4 3 3 2 2 2 2 2 2 2 1 1 2 2 1 1 1 0 0 0 0 0 0 0 0 0 -0 -0 0 0 1 1
7 9 9 16 16 12 13 14 7 8 6 5 5 5 4 3 4 4 4 4 3 2 2 2 2 2 2 1 2 2 1 1 1 1 0 0 0 -0 0 0 0 0 0 0 0 1 0 1 1